NOAA 16 DEB

Satellite information

Favourite Embed

Satellite Type and Status

DEBRISIN ORBIT

Key statistics

Satellite NOAA 16 DEB at a glance.

Uptime

9053

Days in orbit

Revolutions

≈ 14.3

Per day

Orbit

SSO

Sun Synchronous Orbit

Inclination

98.9

Latest

Satellite identification and parameters

Extended collection of information and parameters for NOAA 16 DEB.

Object identification

Identified? True

Debris? True

Object name: NOAA 16 DEB

International designator: 2000-055JD

Object number (NORAD): 41360

Object ID (CCSDS): 41360

Country: UNITED STATES OF AMERICA (US)

Current information (Y/N): Y

RCS size: SMALL

Orbital parameters

Period: 100.752 minutes

Inclination: 98.8801 deg

SMA: 7172.35 km

Apoapsis: 809.548 km

Periapsis: 778.883 km

RAAN: 298.1834 deg

Eccentricy: 0.0021377

Argument of periapsis: 306.8306 deg

Mean anomaly: 53.0914 deg

Mean motion: 14.29257605 rev/day

Mean motion (dot): 0.00003285 rev/day2

B* drag term: 0.0013066 1/REarth

Two-line elements (TLE)

Creation date: July 4, 2025, 3:20 a.m.

Reference frame: TEME

Reference center: EARTH

Epoch: July 3, 2025, 6:36 p.m. UTC

TLE line 0: 0 NOAA 16 DEB

TLE line 1: 1 41360U 00055JD 25184.77546436 .00003285 00000-0 13066-2 0 9992

TLE line 2: 2 41360 98.8801 298.1834 0021377 306.8306 53.0914 14.29257605487395

Live tracking on map

Real-time ground track for satellite NOAA 16 DEB.

In-orbit conjunctions

A list of the most updated potential collisions computed for object NOAA 16 DEB.

Target Orbit TCA Probability of collision Miss distance Type
NOAA 16 DEB SSO 2025-06-20 20:12:26 0.000172858 229.0 (m) DEBRIS
CZ-6A DEB LEO 2025-02-21 00:27:52 0.0002716961 248.0 (m) DEBRIS
CZ-6A DEB LEO 2024-12-20 07:02:58 0.0001323766 293.0 (m) DEBRIS

Associated space launch

The NOAA K, L and M POES satellites begin the fifth generation of improved environmental monitoring in support of NOAA missions. The instrument payload has significant improvements and additions/deletions. The instrument changes have effected the spacecraft subsystems and data formats.

NOAA 16 DEB was lifted into orbit during the mission ‘Titan II SLV | NOAA 16’, on board a Titan II SLV space rocket.

The launch took place on Sept. 21, 2000, 10:22 a.m. from Space Launch Complex 4W.

For more information about the launch, click the button.

Launch to space Titan II SLV | NOAA 16
Titan II SLV | NOAA 16

Agency: N/A

Status: Launch Successful

Launch date: Sept. 21, 2000, 10:22 a.m. UTC

Rocket: Titan II SLV

Launch pad: Space Launch Complex 4W

Location: Vandenberg SFB, CA, USA

...

Latest news about this satellite

There are no fresh news available about this satellite. Check back as we update our databases every day.


Newsletter sign-up

Weekly statistics, charts and insights to help you stay on top of the space industry.